| time (UTC) | temp F | wind direction | speed MPH | gust MPH | rain 1hr in | rain 24hr in | rain mn in | humidity % | barometer mb |
| 20260904174045 | 53 | 139 | 0.0 | 2.0 | 0.00 | 0.16 | 0.16 | 78 | 1015.0 |
| 20260904173545 | 53 | 148 | 0.0 | 2.0 | 0.00 | 0.16 | 0.16 | 79 | 1015.0 |
| 20260904173049 | 53 | 327 | 0.0 | 2.0 | 0.00 | 0.16 | 0.16 | 78 | 1014.9 |
| 20260904172544 | 53 | 326 | 0.0 | 2.0 | 0.00 | 0.16 | 0.16 | 77 | 1014.8 |
| 20260904172044 | 53 | 315 | 0.0 | 3.0 | 0.00 | 0.16 | 0.16 | 76 | 1014.9 |
| 20260904171549 | 53 | 314 | 1.0 | 3.0 | 0.00 | 0.16 | 0.16 | 77 | 1014.9 |
| 20260904171043 | 53 | 319 | 0.0 | 2.0 | 0.00 | 0.16 | 0.16 | 77 | 1014.9 |
| 20260904170543 | 53 | 319 | 0.0 | 2.0 | 0.00 | 0.16 | 0.16 | 78 | 1015.0 |
| 20260904170042 | 52 | 293 | 0.0 | 3.0 | 0.00 | 0.16 | 0.16 | 80 | 1014.8 |
| 20260904165541 | 52 | 316 | 1.0 | 4.0 | 0.00 | 0.16 | 0.16 | 80 | 1014.7 |
| 20260904165043 | 52 | 314 | 0.0 | 4.0 | 0.00 | 0.16 | 0.16 | 80 | 1014.5 |
| 20260904164541 | 52 | 328 | 0.0 | 3.0 | 0.00 | 0.16 | 0.16 | 78 | 1014.6 |
| 20260904164043 | 52 | 333 | 0.0 | 4.0 | 0.00 | 0.16 | 0.16 | 78 | 1014.7 |
| 20260904163539 | 52 | 325 | 1.0 | 4.0 | 0.00 | 0.16 | 0.16 | 77 | 1014.5 |
| 20260904163040 | 52 | 326 | 0.0 | 3.0 | 0.00 | 0.16 | 0.16 | 79 | 1014.4 |
| 20260904162538 | 52 | 316 | 0.0 | 3.0 | 0.00 | 0.16 | 0.16 | 81 | 1014.3 |
| 20260904162037 | 52 | 314 | 1.0 | 3.0 | 0.00 | 0.16 | 0.16 | 80 | 1014.2 |
| 20260904161538 | 52 | 326 | 1.0 | 3.0 | 0.00 | 0.16 | 0.16 | 80 | 1014.3 |
| 20260904161037 | 52 | 304 | 0.0 | 2.0 | 0.00 | 0.16 | 0.16 | 81 | 1014.3 |
| 20260904160536 | 52 | 134 | 0.0 | 3.0 | 0.00 | 0.16 | 0.16 | 83 | 1014.4 |
| 20260904160040 | 52 | 137 | 0.0 | 3.0 | 0.00 | 0.16 | 0.16 | 83 | 1014.4 |
| 20260904155537 | 51 | 167 | 0.0 | 2.0 | 0.00 | 0.16 | 0.16 | 83 | 1014.3 |
| 20260904155034 | 51 | 153 | 0.0 | 2.0 | 0.00 | 0.16 | 0.16 | 83 | 1014.3 |
| 20260904154534 | 51 | 159 | 0.0 | 2.0 | 0.00 | 0.16 | 0.16 | 84 | 1014.3 |
| 20260904154033 | 51 | 188 | 0.0 | 2.0 | 0.00 | 0.16 | 0.16 | 84 | 1014.4 |
| 20260904153532 | 51 | 139 | 0.0 | 1.0 | 0.00 | 0.16 | 0.16 | 86 | 1014.4 |
| 20260904153034 | 51 | 139 | 0.0 | 2.0 | 0.00 | 0.16 | 0.16 | 86 | 1014.4 |
| 20260904152529 | 51 | 144 | 0.0 | 1.0 | 0.00 | 0.16 | 0.16 | 87 | 1014.5 |
| 20260904152028 | 50 | 131 | 0.0 | 3.0 | 0.00 | 0.16 | 0.16 | 88 | 1014.3 |
| 20260904151528 | 50 | 139 | 0.0 | 3.0 | 0.00 | 0.16 | 0.16 | 87 | 1014.3 |
| 20260904151028 | 50 | 130 | 0.0 | 3.0 | 0.00 | 0.16 | 0.16 | 88 | 1014.3 |
| 20260904150526 | 50 | 129 | 0.0 | 2.0 | 0.00 | 0.16 | 0.16 | 88 | 1014.2 |
| 20260904150025 | 50 | 146 | 0.0 | 1.0 | 0.00 | 0.16 | 0.16 | 88 | 1014.0 |
| 20260904145524 | 50 | 135 | 0.0 | 0.0 | 0.00 | 0.16 | 0.16 | 88 | 1013.7 |
| 20260904145023 | 50 | 135 | 0.0 | 0.0 | 0.00 | 0.16 | 0.16 | 88 | 1013.8 |
| 20260904144522 | 50 | 135 | 0.0 | 0.0 | 0.00 | 0.16 | 0.16 | 88 | 1013.9 |
| 20260904144021 | 49 | 135 | 0.0 | 0.0 | 0.00 | 0.16 | 0.16 | 90 | 1014.0 |
| 20260904143521 | 49 | 136 | 0.0 | 0.0 | 0.00 | 0.16 | 0.16 | 90 | 1014.0 |
| 20260904143021 | 49 | 135 | 0.0 | 1.0 | 0.00 | 0.16 | 0.16 | 90 | 1014.0 |
| 20260904142520 | 49 | 135 | 0.0 | 1.0 | 0.00 | 0.16 | 0.16 | 91 | 1014.0 |
| 20260904142019 | 49 | 138 | 0.0 | 1.0 | 0.00 | 0.16 | 0.16 | 91 | 1013.7 |
| 20260904141518 | 49 | 148 | 0.0 | 1.0 | 0.00 | 0.16 | 0.16 | 91 | 1013.6 |
| 20260904141019 | 48 | 148 | 0.0 | 0.0 | 0.00 | 0.16 | 0.16 | 91 | 1013.6 |
| 20260904140518 | 48 | 148 | 0.0 | 1.0 | 0.00 | 0.16 | 0.16 | 91 | 1013.6 |
| 20260904140018 | 48 | 148 | 0.0 | 1.0 | 0.00 | 0.16 | 0.16 | 91 | 1013.7 |
| 20260904135518 | 48 | 148 | 0.0 | 1.0 | 0.00 | 0.16 | 0.16 | 91 | 1013.6 |
| 20260904135018 | 48 | 147 | 0.0 | 1.0 | 0.00 | 0.16 | 0.16 | 91 | 1013.6 |
| 20260904134517 | 48 | 150 | 0.0 | 0.0 | 0.00 | 0.16 | 0.16 | 91 | 1013.5 |
| 20260904134016 | 48 | 150 | 0.0 | 0.0 | 0.00 | 0.16 | 0.16 | 91 | 1013.2 |
| 20260904133515 | 48 | 150 | 0.0 | 1.0 | 0.00 | 0.16 | 0.16 | 91 | 1013.3 |
| 20260904133017 | 48 | 150 | 0.0 | 1.0 | 0.00 | 0.16 | 0.16 | 91 | 1013.2 |
| 20260904132518 | 48 | 150 | 0.0 | 1.0 | 0.00 | 0.16 | 0.16 | 91 | 1013.3 |
| 20260904132014 | 48 | 156 | 0.0 | 0.0 | 0.00 | 0.16 | 0.16 | 92 | 1012.9 |
| 20260904131513 | 48 | 156 | 0.0 | 1.0 | 0.00 | 0.16 | 0.16 | 91 | 1013.0 |
| 20260904131013 | 48 | 156 | 0.0 | 1.0 | 0.00 | 0.16 | 0.16 | 92 | 1013.0 |
| 20260904130513 | 48 | 142 | 0.0 | 1.0 | 0.00 | 0.16 | 0.16 | 92 | 1012.8 |
| 20260904130013 | 48 | 146 | 0.0 | 2.0 | 0.00 | 0.16 | 0.16 | 92 | 1012.9 |
| 20260904125512 | 48 | 146 | 0.0 | 2.0 | 0.00 | 0.16 | 0.16 | 91 | 1012.7 |
| 20260904125012 | 48 | 150 | 0.0 | 1.0 | 0.00 | 0.16 | 0.16 | 91 | 1012.6 |
| 20260904124512 | 48 | 150 | 0.0 | 2.0 | 0.00 | 0.16 | 0.16 | 91 | 1012.7 |
| 20260904124012 | 48 | 150 | 0.0 | 2.0 | 0.00 | 0.16 | 0.16 | 91 | 1012.7 |
| 20260904123514 | 48 | 146 | 0.0 | 0.0 | 0.00 | 0.16 | 0.16 | 91 | 1012.6 |
| 20260904123010 | 48 | 145 | 0.0 | 0.0 | 0.00 | 0.16 | 0.16 | 92 | 1012.6 |
| 20260904122510 | 48 | 145 | 0.0 | 1.0 | 0.00 | 0.16 | 0.16 | 92 | 1012.7 |
| 20260904122007 | 48 | 148 | 0.0 | 1.0 | 0.00 | 0.16 | 0.16 | 92 | 1012.9 |
| 20260904121507 | 48 | 136 | 0.0 | 2.0 | 0.00 | 0.16 | 0.16 | 92 | 1013.0 |
| 20260904121007 | 48 | 150 | 0.0 | 4.0 | 0.00 | 0.16 | 0.16 | 92 | 1012.9 |
| 20260904120506 | 48 | 304 | 0.0 | 4.0 | 0.00 | 0.16 | 0.16 | 92 | 1012.7 |
| 20260904120008 | 48 | 313 | 0.0 | 2.0 | 0.00 | 0.16 | 0.16 | 93 | 1012.5 |
| 20260904115505 | 48 | 320 | 0.0 | 3.0 | 0.00 | 0.18 | 0.16 | 93 | 1012.4 |
| 20260904115005 | 47 | 320 | 0.0 | 7.0 | 0.00 | 0.18 | 0.16 | 93 | 1012.4 |
| 20260904114505 | 47 | 318 | 1.0 | 7.0 | 0.00 | 0.18 | 0.16 | 93 | 1012.5 |
| 20260904114004 | 47 | 306 | 1.0 | 5.0 | 0.00 | 0.18 | 0.16 | 93 | 1012.6 |
| 20260904113503 | 47 | 339 | 1.0 | 7.0 | 0.00 | 0.18 | 0.16 | 93 | 1012.4 |
| 20260904113002 | 47 | 310 | 2.0 | 7.0 | 0.00 | 0.18 | 0.16 | 93 | 1012.4 |
| 20260904112501 | 47 | 330 | 1.0 | 6.0 | 0.00 | 0.18 | 0.16 | 93 | 1012.4 |
| 20260904112001 | 47 | 322 | 1.0 | 6.0 | 0.00 | 0.18 | 0.16 | 93 | 1012.4 |
| 20260904111501 | 47 | 323 | 1.0 | 5.0 | 0.00 | 0.18 | 0.16 | 93 | 1012.4 |
| 20260904111001 | 47 | 319 | 0.0 | 5.0 | 0.00 | 0.18 | 0.16 | 93 | 1012.3 |
| 20260904110501 | 47 | 320 | 1.0 | 5.0 | 0.00 | 0.18 | 0.16 | 93 | 1012.3 |
| 20260904110001 | 47 | 320 | 1.0 | 7.0 | 0.00 | 0.18 | 0.16 | 93 | 1012.5 |
| 20260904105501 | 47 | 314 | 2.0 | 7.0 | 0.00 | 0.19 | 0.16 | 93 | 1012.5 |
| 20260904105001 | 48 | 316 | 1.0 | 7.0 | 0.01 | 0.19 | 0.16 | 93 | 1012.5 |
| 20260904104611 | 48 | 311 | 2.0 | 7.0 | 0.01 | 0.19 | 0.16 | 93 | 1012.4 |
| 20260904104058 | 48 | 327 | 2.0 | 6.0 | 0.01 | 0.19 | 0.16 | 93 | 1012.2 |
| 20260904103559 | 48 | 330 | 2.0 | 6.0 | 0.01 | 0.19 | 0.16 | 93 | 1012.3 |
| 20260904103106 | 48 | 309 | 1.0 | 6.0 | 0.01 | 0.19 | 0.16 | 93 | 1012.2 |
| 20260904102557 | 48 | 323 | 1.0 | 7.0 | 0.01 | 0.19 | 0.16 | 93 | 1012.1 |
| 20260904102057 | 48 | 319 | 3.0 | 7.0 | 0.01 | 0.19 | 0.16 | 93 | 1012.1 |
| 20260904101602 | 48 | 320 | 1.0 | 4.0 | 0.01 | 0.19 | 0.16 | 93 | 1011.8 |
| 20260904101055 | 48 | 326 | 1.0 | 3.0 | 0.01 | 0.19 | 0.16 | 93 | 1011.8 |
| 20260904100555 | 48 | 321 | 1.0 | 4.0 | 0.01 | 0.19 | 0.16 | 93 | 1011.8 |
| 20260904100054 | 48 | 325 | 0.0 | 4.0 | 0.01 | 0.19 | 0.16 | 93 | 1011.8 |
| 20260904095554 | 48 | 311 | 0.0 | 2.0 | 0.01 | 0.22 | 0.16 | 93 | 1011.8 |
| 20260904095053 | 48 | 135 | 0.0 | 1.0 | 0.00 | 0.21 | 0.15 | 93 | 1011.5 |
| 20260904094554 | 48 | 334 | 0.0 | 2.0 | 0.01 | 0.21 | 0.15 | 93 | 1011.3 |
| 20260904094052 | 48 | 336 | 0.0 | 2.0 | 0.01 | 0.21 | 0.15 | 93 | 1011.3 |
| 20260904093552 | 48 | 325 | 0.0 | 2.0 | 0.01 | 0.21 | 0.15 | 94 | 1011.5 |
| 20260904093052 | 48 | 325 | 0.0 | 1.0 | 0.01 | 0.21 | 0.15 | 94 | 1011.5 |
| 20260904092550 | 48 | 325 | 0.0 | 1.0 | 0.01 | 0.21 | 0.15 | 93 | 1011.2 |
| 20260904092052 | 48 | 325 | 0.0 | 1.0 | 0.01 | 0.21 | 0.15 | 93 | 1011.1 |
| 20260904091551 | 48 | 325 | 0.0 | 0.0 | 0.02 | 0.21 | 0.15 | 93 | 1011.0 |
| 20260904091050 | 48 | 325 | 0.0 | 1.0 | 0.02 | 0.21 | 0.15 | 93 | 1011.3 |
| 20260904090549 | 48 | 324 | 0.0 | 1.0 | 0.02 | 0.21 | 0.15 | 93 | 1011.3 |
| 20260904090050 | 48 | 325 | 0.0 | 0.0 | 0.02 | 0.21 | 0.15 | 93 | 1011.3 |
| 20260904085549 | 48 | 325 | 0.0 | 1.0 | 0.02 | 0.22 | 0.15 | 93 | 1011.4 |
| 20260904085049 | 48 | 325 | 0.0 | 2.0 | 0.02 | 0.22 | 0.15 | 93 | 1011.4 |
| 20260904084550 | 48 | 325 | 0.0 | 2.0 | 0.02 | 0.21 | 0.14 | 93 | 1011.3 |
| 20260904084048 | 48 | 330 | 0.0 | 2.0 | 0.02 | 0.21 | 0.14 | 93 | 1011.4 |
| 20260904083549 | 48 | 63 | 0.0 | 3.0 | 0.02 | 0.21 | 0.14 | 93 | 1011.2 |
| 20260904083055 | 48 | 318 | 1.0 | 3.0 | 0.03 | 0.21 | 0.14 | 93 | 1011.1 |
| 20260904082547 | 48 | 323 | 1.0 | 3.0 | 0.05 | 0.21 | 0.14 | 93 | 1011.1 |
| 20260904082048 | 48 | 193 | 0.0 | 3.0 | 0.06 | 0.21 | 0.14 | 93 | 1011.1 |
| 20260904081550 | 48 | 330 | 1.0 | 5.0 | 0.06 | 0.20 | 0.13 | 92 | 1011.0 |
| 20260904081047 | 48 | 323 | 1.0 | 5.0 | 0.07 | 0.20 | 0.13 | 92 | 1011.0 |
| 20260904080547 | 47 | 333 | 2.0 | 4.0 | 0.08 | 0.20 | 0.13 | 92 | 1011.0 |
| 20260904080046 | 47 | 236 | 1.0 | 3.0 | 0.10 | 0.20 | 0.13 | 92 | 1011.2 |
| 20260904075545 | 47 | 325 | 1.0 | 2.0 | 0.10 | 0.20 | 0.13 | 92 | 1011.1 |
| 20260904075045 | 47 | 335 | 0.0 | 3.0 | 0.10 | 0.20 | 0.13 | 92 | 1011.2 |
| 20260904074557 | 47 | 323 | 0.0 | 4.0 | 0.10 | 0.19 | 0.12 | 91 | 1011.0 |
| 20260904074045 | 47 | 336 | 2.0 | 5.0 | 0.10 | 0.19 | 0.12 | 91 | 1011.1 |
| 20260904073545 | 47 | 322 | 2.0 | 6.0 | 0.10 | 0.19 | 0.12 | 91 | 1011.3 |
| 20260904073047 | 47 | 313 | 3.0 | 6.0 | 0.09 | 0.18 | 0.11 | 91 | 1011.3 |
| 20260904072543 | 47 | 322 | 2.0 | 4.0 | 0.08 | 0.16 | 0.09 | 91 | 1011.3 |
| 20260904072044 | 47 | 321 | 1.0 | 4.0 | 0.07 | 0.15 | 0.08 | 91 | 1011.5 |
| 20260904071544 | 48 | 326 | 1.0 | 6.0 | 0.06 | 0.14 | 0.07 | 91 | 1011.5 |
| 20260904071043 | 47 | 344 | 1.0 | 6.0 | 0.06 | 0.13 | 0.06 | 91 | 1011.4 |
| 20260904070542 | 48 | 326 | 2.0 | 7.0 | 0.04 | 0.11 | 0.04 | 90 | 1011.5 |
| 20260904070042 | 48 | 320 | 1.0 | 7.0 | 0.03 | 0.10 | 0.03 | 90 | 1011.5 |
| 20260904065541 | 48 | 324 | 1.0 | 7.0 | 0.03 | 0.10 | 0.03 | 90 | 1011.5 |
| 20260904065040 | 48 | 304 | 3.0 | 7.0 | 0.03 | 0.10 | 0.03 | 89 | 1011.3 |
| 20260904064540 | 48 | 319 | 0.0 | 9.0 | 0.02 | 0.09 | 0.02 | 90 | 1011.2 |
| 20260904064039 | 48 | 321 | 3.0 | 9.0 | 0.02 | 0.09 | 0.02 | 89 | 1011.1 |
| 20260904063538 | 48 | 314 | 3.0 | 8.0 | 0.02 | 0.09 | 0.02 | 88 | 1010.9 |
| 20260904063052 | 48 | 330 | 3.0 | 9.0 | 0.02 | 0.09 | 0.02 | 88 | 1011.1 |
| 20260904062535 | 48 | 311 | 3.0 | 11.0 | 0.01 | 0.08 | 0.01 | 87 | 1011.0 |
| 20260904062034 | 48 | 340 | 4.0 | 11.0 | 0.01 | 0.08 | 0.01 | 86 | 1011.1 |
| 20260904061536 | 49 | 4 | 4.0 | 9.0 | 0.00 | 0.07 | 0.00 | 85 | 1011.0 |
| 20260904061034 | 49 | 325 | 4.0 | 9.0 | 0.00 | 0.07 | 0.00 | 84 | 1011.1 |
| 20260904060533 | 49 | 327 | 3.0 | 7.0 | 0.00 | 0.07 | 0.00 | 84 | 1011.1 |
| 20260904060043 | 49 | 321 | 2.0 | 6.0 | 0.00 | 0.07 | 0.00 | 84 | 1011.0 |
| 20260904055529 | 49 | 326 | 2.0 | 6.0 | 0.00 | 0.07 | 0.07 | 83 | 1011.0 |
| 20260904055030 | 49 | 285 | 2.0 | 8.0 | 0.00 | 0.07 | 0.07 | 82 | 1010.9 |
| 20260904054530 | 49 | 305 | 2.0 | 8.0 | 0.00 | 0.07 | 0.07 | 82 | 1010.7 |
| 20260904054030 | 49 | 319 | 2.0 | 10.0 | 0.00 | 0.07 | 0.07 | 83 | 1010.4 |
| 20260904053528 | 49 | 313 | 3.0 | 10.0 | 0.00 | 0.07 | 0.07 | 83 | 1010.2 |
| 20260904053033 | 49 | 325 | 4.0 | 10.0 | 0.00 | 0.07 | 0.07 | 82 | 1010.4 |
| 20260904052528 | 49 | 320 | 4.0 | 10.0 | 0.00 | 0.07 | 0.07 | 81 | 1010.4 |
| 20260904052032 | 49 | 311 | 3.0 | 9.0 | 0.00 | 0.07 | 0.07 | 81 | 1010.6 |
| 20260904051527 | 49 | 314 | 3.0 | 9.0 | 0.00 | 0.07 | 0.07 | 82 | 1011.0 |
| 20260904051027 | 49 | 314 | 3.0 | 12.0 | 0.00 | 0.07 | 0.07 | 82 | 1011.1 |
| 20260904050527 | 49 | 330 | 5.0 | 13.0 | 0.00 | 0.07 | 0.07 | 82 | 1011.1 |
| 20260904050027 | 49 | 316 | 3.0 | 13.0 | 0.00 | 0.07 | 0.07 | 83 | 1011.1 |
| 20260904045526 | 49 | 320 | 3.0 | 9.0 | 0.00 | 0.07 | 0.07 | 82 | 1011.2 |
| 20260904045026 | 49 | 309 | 3.0 | 11.0 | 0.00 | 0.07 | 0.07 | 82 | 1010.9 |
| 20260904044539 | 49 | 314 | 5.0 | 15.0 | 0.00 | 0.07 | 0.07 | 80 | 1011.0 |
| 20260904044025 | 50 | 342 | 6.0 | 17.0 | 0.00 | 0.07 | 0.07 | 78 | 1010.9 |
| 20260904043524 | 50 | 316 | 6.0 | 20.0 | 0.00 | 0.07 | 0.07 | 76 | 1011.4 |
| 20260904043023 | 50 | 323 | 10.0 | 17.0 | 0.00 | 0.07 | 0.07 | 76 | 1011.5 |
| 20260904042522 | 50 | 326 | 7.0 | 17.0 | 0.00 | 0.07 | 0.07 | 75 | 1011.3 |
| 20260904042021 | 51 | 312 | 8.0 | 15.0 | 0.00 | 0.07 | 0.07 | 76 | 1011.2 |
| 20260904041520 | 51 | 260 | 4.0 | 15.0 | 0.00 | 0.07 | 0.07 | 76 | 1011.2 |
| 20260904041021 | 51 | 314 | 7.0 | 16.0 | 0.00 | 0.07 | 0.07 | 76 | 1010.9 |
| 20260904040517 | 51 | 318 | 6.0 | 17.0 | 0.00 | 0.07 | 0.07 | 76 | 1010.9 |
| 20260904040016 | 51 | 341 | 7.0 | 17.0 | 0.00 | 0.07 | 0.07 | 74 | 1010.7 |
| 20260904035515 | 52 | 322 | 5.0 | 21.0 | 0.00 | 0.07 | 0.07 | 74 | 1010.7 |
| 20260904035014 | 53 | 356 | 7.0 | 21.0 | 0.00 | 0.07 | 0.07 | 74 | 1010.4 |
| 20260904034512 | 53 | 311 | 9.0 | 17.0 | 0.00 | 0.07 | 0.07 | 74 | 1010.1 |
| 20260904034011 | 53 | 319 | 8.0 | 15.0 | 0.00 | 0.07 | 0.07 | 73 | 1010.1 |
| 20260904033513 | 54 | 314 | 7.0 | 15.0 | 0.00 | 0.07 | 0.07 | 73 | 1009.7 |
| 20260904033008 | 55 | 296 | 7.0 | 17.0 | 0.00 | 0.07 | 0.07 | 73 | 1009.7 |
| 20260904032507 | 56 | 301 | 5.0 | 17.0 | 0.00 | 0.07 | 0.07 | 74 | 1009.6 |
| 20260904032006 | 56 | 326 | 6.0 | 21.0 | 0.00 | 0.07 | 0.07 | 74 | 1009.5 |
| 20260904031506 | 56 | 321 | 8.0 | 21.0 | 0.00 | 0.07 | 0.07 | 72 | 1009.2 |
| 20260904031005 | 57 | 316 | 7.0 | 20.0 | 0.00 | 0.07 | 0.07 | 72 | 1008.7 |
| 20260904030505 | 58 | 53 | 9.0 | 20.0 | 0.00 | 0.07 | 0.07 | 71 | 1008.2 |
| 20260904030004 | 59 | 314 | 5.0 | 12.0 | 0.00 | 0.07 | 0.07 | 74 | 1008.0 |
| 20260904025504 | 60 | 22 | 6.0 | 12.0 | 0.00 | 0.07 | 0.07 | 73 | 1007.8 |
| 20260904025002 | 60 | 319 | 6.0 | 17.0 | 0.00 | 0.07 | 0.07 | 72 | 1007.5 |
| 20260904024505 | 61 | 337 | 6.0 | 18.0 | 0.00 | 0.07 | 0.07 | 71 | 1007.1 |
| 20260904024004 | 63 | 323 | 8.0 | 18.0 | 0.00 | 0.07 | 0.07 | 69 | 1007.0 |
| 20260904023502 | 64 | 301 | 6.0 | 13.0 | 0.00 | 0.07 | 0.07 | 67 | 1006.6 |
| 20260904023002 | 65 | 326 | 5.0 | 12.0 | 0.00 | 0.07 | 0.07 | 66 | 1006.5 |
| 20260904022502 | 65 | 315 | 4.0 | 9.0 | 0.00 | 0.07 | 0.07 | 65 | 1006.2 |
| 20260904022001 | 66 | 323 | 3.0 | 9.0 | 0.00 | 0.07 | 0.07 | 65 | 1006.1 |
| 20260904021501 | 66 | 323 | 1.0 | 5.0 | 0.00 | 0.07 | 0.07 | 65 | 1006.1 |
| 20260904021004 | 66 | 324 | 2.0 | 5.0 | 0.00 | 0.07 | 0.07 | 64 | 1006.0 |
| 20260904020600 | 67 | 321 | 2.0 | 6.0 | 0.00 | 0.07 | 0.07 | 64 | 1006.1 |
| 20260904020101 | 67 | 325 | 1.0 | 6.0 | 0.00 | 0.07 | 0.07 | 64 | 1006.1 |
| 20260904015602 | 67 | 5 | 1.0 | 6.0 | 0.00 | 0.07 | 0.07 | 63 | 1006.1 |
| 20260904015101 | 67 | 324 | 2.0 | 7.0 | 0.00 | 0.07 | 0.07 | 63 | 1006.1 |
| 20260904014601 | 68 | 318 | 2.0 | 7.0 | 0.00 | 0.07 | 0.07 | 62 | 1006.1 |
| 20260904014101 | 68 | 314 | 1.0 | 5.0 | 0.00 | 0.07 | 0.07 | 62 | 1006.1 |
| 20260904013601 | 68 | 277 | 3.0 | 5.0 | 0.00 | 0.07 | 0.07 | 61 | 1006.1 |
| 20260904013059 | 69 | 330 | 1.0 | 7.0 | 0.00 | 0.07 | 0.07 | 61 | 1006.1 |
| 20260904012559 | 69 | 323 | 3.0 | 7.0 | 0.00 | 0.07 | 0.07 | 60 | 1006.1 |
| 20260904012059 | 69 | 313 | 2.0 | 5.0 | 0.00 | 0.07 | 0.07 | 59 | 1006.1 |
| 20260904011600 | 70 | 316 | 2.0 | 5.0 | 0.00 | 0.07 | 0.07 | 58 | 1006.1 |
| 20260904011058 | 70 | 317 | 0.0 | 4.0 | 0.00 | 0.07 | 0.07 | 57 | 1006.1 |
| 20260904010558 | 70 | 311 | 0.0 | 4.0 | 0.00 | 0.07 | 0.07 | 58 | 1006.1 |
| 20260904005558 | 71 | 311 | 2.0 | 5.0 | 0.00 | 0.07 | 0.07 | 55 | 1006.1 |
| 20260904005100 | 71 | 317 | 2.0 | 6.0 | 0.00 | 0.07 | 0.07 | 54 | 1006.1 |
| 20260904004602 | 72 | 309 | 3.0 | 7.0 | 0.00 | 0.07 | 0.07 | 53 | 1005.9 |
| 20260904004057 | 72 | 304 | 2.0 | 7.0 | 0.00 | 0.07 | 0.07 | 52 | 1006.0 |
| 20260904003557 | 72 | 308 | 1.0 | 4.0 | 0.00 | 0.07 | 0.07 | 50 | 1006.0 |
| 20260904003056 | 73 | 307 | 1.0 | 4.0 | 0.00 | 0.07 | 0.07 | 49 | 1006.1 |
| 20260904002557 | 73 | 326 | 0.0 | 2.0 | 0.00 | 0.07 | 0.07 | 46 | 1006.1 |
| 20260904002058 | 73 | 134 | 0.0 | 3.0 | 0.00 | 0.07 | 0.07 | 44 | 1006.1 |
| 20260904001559 | 73 | 136 | 0.0 | 3.0 | 0.00 | 0.07 | 0.07 | 44 | 1006.2 |
| 20260904001054 | 74 | 142 | 0.0 | 2.0 | 0.00 | 0.07 | 0.07 | 42 | 1006.3 |
| 20260904000554 | 74 | 139 | 0.0 | 4.0 | 0.00 | 0.07 | 0.07 | 37 | 1006.2 |
| 20260904000128 | 74 | 139 | 0.0 | 4.0 | 0.00 | 0.07 | 0.07 | 38 | 1006.3 |
| 20260903235553 | 74 | 141 | 0.0 | 3.0 | 0.00 | 0.07 | 0.07 | 37 | 1006.3 |
| 20260903235056 | 74 | 132 | 0.0 | 5.0 | 0.00 | 0.07 | 0.07 | 36 | 1006.3 |
| 20260903234552 | 74 | 129 | 1.0 | 5.0 | 0.00 | 0.07 | 0.07 | 36 | 1006.3 |
| 20260903234052 | 74 | 117 | 0.0 | 6.0 | 0.00 | 0.07 | 0.07 | 35 | 1006.5 |
| 20260903233551 | 74 | 139 | 3.0 | 6.0 | 0.00 | 0.07 | 0.07 | 35 | 1006.7 |
| 20260903233050 | 75 | 86 | 2.0 | 6.0 | 0.00 | 0.07 | 0.07 | 36 | 1006.8 |
| 20260903232549 | 75 | 129 | 0.0 | 2.0 | 0.00 | 0.07 | 0.07 | 37 | 1006.9 |
| 20260903232048 | 75 | 139 | 0.0 | 2.0 | 0.00 | 0.07 | 0.07 | 38 | 1006.9 |
| 20260903231549 | 75 | 141 | 0.0 | 4.0 | 0.00 | 0.07 | 0.07 | 35 | 1006.9 |
| 20260903231048 | 75 | 131 | 0.0 | 4.0 | 0.00 | 0.07 | 0.07 | 35 | 1006.9 |
| 20260903230547 | 75 | 129 | 0.0 | 4.0 | 0.00 | 0.07 | 0.07 | 36 | 1007.0 |
| 20260903230049 | 75 | 125 | 1.0 | 5.0 | 0.00 | 0.07 | 0.07 | 36 | 1007.1 |
| 20260903225546 | 75 | 144 | 0.0 | 6.0 | 0.00 | 0.07 | 0.07 | 35 | 1007.1 |
| 20260903225046 | 75 | 125 | 2.0 | 6.0 | 0.00 | 0.07 | 0.07 | 35 | 1007.2 |
| 20260903224544 | 75 | 145 | 3.0 | 5.0 | 0.00 | 0.07 | 0.07 | 35 | 1007.3 |
| 20260903224044 | 75 | 125 | 1.0 | 5.0 | 0.00 | 0.07 | 0.07 | 35 | 1007.3 |
| 20260903223544 | 75 | 129 | 2.0 | 5.0 | 0.00 | 0.07 | 0.07 | 34 | 1007.5 |
| 20260903223044 | 75 | 117 | 1.0 | 7.0 | 0.00 | 0.07 | 0.07 | 36 | 1007.5 |
| 20260903222542 | 75 | 138 | 1.0 | 7.0 | 0.00 | 0.07 | 0.07 | 37 | 1007.6 |
| 20260903222042 | 75 | 121 | 1.0 | 4.0 | 0.00 | 0.07 | 0.07 | 36 | 1007.5 |
| 20260903221542 | 75 | 117 | 2.0 | 4.0 | 0.00 | 0.07 | 0.07 | 36 | 1007.5 |
| 20260903221042 | 75 | 128 | 1.0 | 3.0 | 0.00 | 0.07 | 0.07 | 38 | 1007.5 |
| 20260903220541 | 75 | 146 | 1.0 | 3.0 | 0.00 | 0.07 | 0.07 | 36 | 1007.5 |
| 20260903220048 | 75 | 106 | 1.0 | 6.0 | 0.00 | 0.07 | 0.07 | 36 | 1007.6 |
| 20260903215540 | 75 | 143 | 2.0 | 6.0 | 0.00 | 0.07 | 0.07 | 36 | 1007.7 |
| 20260903215038 | 75 | 77 | 2.0 | 4.0 | 0.00 | 0.07 | 0.07 | 36 | 1007.7 |
| 20260903214542 | 75 | 132 | 2.0 | 5.0 | 0.00 | 0.07 | 0.07 | 35 | 1007.8 |
| 20260903214038 | 75 | 77 | 1.0 | 6.0 | 0.00 | 0.07 | 0.07 | 37 | 1007.8 |
| 20260903213539 | 75 | 108 | 2.0 | 6.0 | 0.00 | 0.07 | 0.07 | 35 | 1007.9 |
| 20260903213040 | 75 | 149 | 2.0 | 5.0 | 0.00 | 0.07 | 0.07 | 37 | 1008.0 |
| 20260903212534 | 75 | 124 | 1.0 | 3.0 | 0.00 | 0.07 | 0.07 | 40 | 1008.1 |
| 20260903212037 | 74 | 115 | 2.0 | 5.0 | 0.00 | 0.07 | 0.07 | 40 | 1008.2 |
| 20260903211601 | 74 | 122 | 1.0 | 5.0 | 0.00 | 0.07 | 0.07 | 39 | 1008.3 |
| 20260903211033 | 74 | 102 | 1.0 | 3.0 | 0.00 | 0.07 | 0.07 | 40 | 1008.4 |
| 20260903210531 | 74 | 143 | 2.0 | 3.0 | 0.00 | 0.07 | 0.07 | 39 | 1008.5 |
| 20260903210031 | 73 | 131 | 1.0 | 4.0 | 0.00 | 0.07 | 0.07 | 40 | 1008.5 |
| 20260903205530 | 73 | 207 | 1.0 | 4.0 | 0.00 | 0.07 | 0.07 | 39 | 1008.6 |
| 20260903205029 | 73 | 98 | 1.0 | 7.0 | 0.00 | 0.07 | 0.07 | 40 | 1008.8 |
| 20260903204529 | 73 | 94 | 2.0 | 7.0 | 0.00 | 0.07 | 0.07 | 40 | 1008.9 |
| 20260903204028 | 74 | 159 | 2.0 | 5.0 | 0.00 | 0.07 | 0.07 | 41 | 1009.0 |
| 20260903203528 | 74 | 97 | 1.0 | 4.0 | 0.00 | 0.07 | 0.07 | 41 | 1009.1 |
| 20260903203027 | 74 | 153 | 0.0 | 6.0 | 0.00 | 0.07 | 0.07 | 40 | 1009.1 |
| 20260903202525 | 74 | 165 | 2.0 | 6.0 | 0.00 | 0.07 | 0.07 | 41 | 1009.3 |
| 20260903202024 | 74 | 132 | 1.0 | 4.0 | 0.00 | 0.07 | 0.07 | 39 | 1009.4 |
| 20260903201523 | 74 | 165 | 1.0 | 4.0 | 0.00 | 0.07 | 0.07 | 39 | 1009.5 |
| 20260903201023 | 75 | 127 | 1.0 | 5.0 | 0.00 | 0.07 | 0.07 | 38 | 1009.6 |
| 20260903200522 | 75 | 84 | 1.0 | 5.0 | 0.00 | 0.07 | 0.07 | 37 | 1009.7 |
| 20260903200021 | 74 | 127 | 1.0 | 5.0 | 0.00 | 0.07 | 0.07 | 38 | 1009.7 |
| 20260903195519 | 73 | 114 | 1.0 | 4.0 | 0.00 | 0.07 | 0.07 | 41 | 1009.9 |
| 20260903195018 | 73 | 124 | 1.0 | 4.0 | 0.00 | 0.07 | 0.07 | 41 | 1010.0 |
| 20260903194518 | 73 | 50 | 1.0 | 5.0 | 0.00 | 0.07 | 0.07 | 41 | 1010.1 |
| 20260903194017 | 73 | 159 | 2.0 | 5.0 | 0.00 | 0.07 | 0.07 | 42 | 1010.1 |
| 20260903193515 | 73 | 125 | 1.0 | 6.0 | 0.00 | 0.07 | 0.07 | 42 | 1010.2 |
| 20260903193014 | 72 | 307 | 0.0 | 6.0 | 0.00 | 0.07 | 0.07 | 44 | 1010.2 |
| 20260903192513 | 72 | 221 | 3.0 | 5.0 | 0.00 | 0.07 | 0.07 | 44 | 1010.4 |
| 20260903192010 | 71 | 96 | 0.0 | 3.0 | 0.00 | 0.07 | 0.07 | 43 | 1010.5 |
| 20260903191515 | 71 | 117 | 1.0 | 4.0 | 0.00 | 0.07 | 0.07 | 44 | 1010.5 |
| 20260903191009 | 71 | 117 | 1.0 | 5.0 | 0.00 | 0.07 | 0.07 | 45 | 1010.7 |
| 20260903190508 | 70 | 122 | 1.0 | 5.0 | 0.00 | 0.07 | 0.07 | 45 | 1010.8 |
| 20260903190006 | 70 | 91 | 1.0 | 5.0 | 0.00 | 0.07 | 0.07 | 46 | 1010.9 |
| 20260903185506 | 70 | 274 | 1.0 | 5.0 | 0.00 | 0.07 | 0.07 | 46 | 1010.9 |
| 20260903185004 | 69 | 127 | 1.0 | 3.0 | 0.00 | 0.07 | 0.07 | 47 | 1011.1 |
| 20260903184502 | 69 | 117 | 0.0 | 3.0 | 0.00 | 0.07 | 0.07 | 50 | 1011.3 |
| 20260903184004 | 68 | 121 | 1.0 | 4.0 | 0.00 | 0.07 | 0.07 | 50 | 1011.3 |
| 20260903183500 | 68 | 159 | 2.0 | 6.0 | 0.00 | 0.07 | 0.07 | 48 | 1011.4 |
| 20260903183004 | 68 | 136 | 2.0 | 6.0 | 0.00 | 0.07 | 0.07 | 48 | 1011.5 |
| 20260903182601 | 68 | 117 | 3.0 | 6.0 | 0.00 | 0.07 | 0.07 | 49 | 1011.5 |
| 20260903182100 | 68 | 143 | 2.0 | 6.0 | 0.00 | 0.07 | 0.07 | 49 | 1011.6 |
| 20260903181558 | 68 | 63 | 2.0 | 7.0 | 0.00 | 0.07 | 0.07 | 49 | 1011.7 |
| 20260903181058 | 68 | 117 | 3.0 | 7.0 | 0.00 | 0.07 | 0.07 | 48 | 1011.7 |
| 20260903180557 | 68 | 156 | 2.0 | 5.0 | 0.00 | 0.07 | 0.07 | 50 | 1011.8 |
| 20260903180107 | 67 | 132 | 1.0 | 6.0 | 0.00 | 0.07 | 0.07 | 50 | 1011.8 |
| 20260903175555 | 67 | 150 | 2.0 | 6.0 | 0.00 | 0.07 | 0.07 | 50 | 1011.8 |
| 20260903175054 | 67 | 129 | 2.0 | 5.0 | 0.00 | 0.07 | 0.07 | 51 | 1011.8 |
| 20260903174609 | 67 | 129 | 2.0 | 5.0 | 0.00 | 0.07 | 0.07 | 51 | 1011.9 |